Theta_e
324 323 325 326 324 322 323 325 325 323 315 308 306 308 308 308 307 306 306 306 305 306 306 306 306 306 307 307 307 306 307 306 307 308 310 310 310 308 309 312 312 310 310 311 312 312 313 312 310 310 312 313 314 313 312 313 313 313 314 314 314 315 316 316 314 312 309 308 309 309 310 310 309 309 310 310 310 310 308 308 308 308 308 308 308
325 324 324 325 324 322 324 325 324 324 320 311 309 312 308 306 307 306 306 306 306 308 308 306 307 309 309 310 309 308 308 308 309 310 309 308 308 308 311 313 312 310 310 312 311 310 311 313 311 309 309 311 313 314 313 313 313 312 313 314 314 314 315 314 313 312 311 310 311 310 311 312 310 310 310 310 310 309 308 308 308 307 307 308 308
325 324 324 324 324 323 323 325 325 325 323 316 313 315 310 307 306 306 310 311 311 314 313 309 311 314 314 315 314 313 313 311 310 312 310 309 308 308 309 310 309 308 310 312 313 310 310 310 309 308 307 309 311 313 314 314 314 314 314 314 315 315 316 316 315 315 314 313 312 311 311 312 311 310 310 310 309 309 309 309 309 308 308 308 308
326 325 325 324 325 324 323 324 325 325 324 320 317 315 311 309 310 311 316 318 317 318 316 313 316 317 317 318 317 317 316 313 313 316 316 315 314 312 312 312 311 312 314 315 315 313 312 312 311 309 309 310 311 313 315 315 315 315 315 316 316 316 316 316 317 316 315 314 313 312 312 312 312 311 310 310 310 310 310 310 310 309 309 309 309
327 326 327 326 326 325 325 326 325 324 323 322 321 318 313 314 316 317 320 320 320 320 318 317 319 319 319 319 318 319 319 317 318 320 320 319 320 319 318 318 317 317 318 317 316 316 316 316 316 313 312 313 313 313 315 316 316 315 315 315 315 316 316 316 316 316 316 315 314 313 313 313 312 312 311 311 311 311 311 310 310 310 310 310 309
327 327 327 327 327 326 326 327 326 325 323 323 323 322 318 317 320 321 320 320 320 320 319 319 320 320 320 320 319 320 320 320 321 321 321 320 320 320 320 320 319 320 319 318 318 318 318 318 318 317 315 315 315 315 315 315 315 315 314 313 313 314 315 315 316 316 316 316 315 314 314 313 313 313 312 311 311 311 311 311 311 310 310 310 309
327 327 327 327 327 327 327 328 327 325 324 323 323 323 322 319 319 320 320 320 321 320 320 320 321 320 320 320 320 321 321 321 322 322 322 322 321 320 319 318 319 320 319 319 320 320 319 320 319 318 317 317 316 316 315 314 315 315 315 314 313 314 315 315 315 315 315 315 315 315 314 313 313 313 312 311 311 311 311 311 311 311 310 310 309
328 327 327 327 327 327 327 328 327 325 324 323 322 322 322 322 320 320 320 320 321 321 321 320 320 320 320 320 321 321 321 322 323 323 323 322 322 321 320 318 319 320 319 319 320 321 320 320 320 319 319 318 317 317 316 315 314 314 315 315 314 315 315 314 314 315 315 315 315 314 314 313 313 313 312 312 311 312 311 311 311 310 310 309 309
327 326 327 326 327 327 327 327 327 326 325 324 323 322 322 323 322 321 321 321 320 321 320 320 321 321 320 321 322 322 322 322 322 322 321 322 323 322 321 320 319 320 320 319 320 321 321 321 321 320 320 318 318 318 318 317 316 316 316 316 315 315 314 314 314 315 315 315 315 315 314 313 313 313 313 313 312 312 311 310 310 310 309 309 309
326 326 326 326 326 327 327 327 327 326 325 325 325 324 322 322 322 322 322 322 321 320 320 321 322 321 322 322 322 322 322 321 319 318 318 320 321 321 322 321 319 320 321 321 320 320 321 321 321 320 319 318 318 318 317 318 318 317 317 317 316 315 314 314 314 315 315 315 315 315 314 314 313 313 313 313 312 311 310 310 310 309 309 309 309
325 325 326 326 326 327 327 326 326 326 325 326 325 325 324 322 322 322 322 322 320 319 320 322 322 321 322 321 320 320 321 319 317 317 317 317 317 318 321 322 320 319 319 320 320 319 320 321 320 319 318 318 318 318 318 318 318 317 316 316 316 315 315 315 314 314 314 315 315 314 314 314 313 313 313 312 311 311 310 309 309 309 309 308 308
324 324 325 325 325 325 326 326 325 325 325 325 324 324 324 323 323 322 321 321 319 319 320 322 321 319 319 319 319 319 319 317 316 317 317 317 316 316 318 320 320 318 317 317 319 318 318 320 319 317 316 315 315 316 316 316 317 317 317 317 316 316 316 316 315 314 314 314 314 314 314 313 313 312 312 312 311 311 309 308 308 308 308 307 307
322 323 323 323 324 324 325 324 324 324 324 324 323 323 322 322 321 320 319 319 319 319 320 320 319 318 317 318 321 321 319 316 316 317 318 317 316 316 316 317 318 317 316 316 316 317 317 318 318 316 313 312 310 310 310 311 312 314 316 317 317 317 317 317 316 315 314 313 313 313 312 312 312 311 311 311 310 309 308 308 308 308 307 307 306
319 320 321 321 322 323 323 323 324 323 323 323 323 322 320 319 319 318 319 319 319 320 321 320 319 318 317 318 320 319 317 316 317 318 317 316 316 316 317 317 316 316 316 316 316 317 316 316 316 315 314 312 309 308 312 312 309 308 309 312 314 314 315 316 316 315 314 313 312 311 311 312 311 310 310 309 309 308 308 308 308 308 307 307 306
314 315 315 316 317 319 320 321 322 322 322 321 322 321 320 319 319 320 321 321 320 320 320 319 319 318 318 318 317 317 316 316 317 315 313 314 314 313 314 316 316 315 315 316 315 315 315 314 314 314 314 313 309 306 309 312 312 309 306 306 309 310 310 312 313 313 314 314 312 311 311 311 310 308 308 308 308 308 307 307 307 307 306 305 305
312 312 312 312 313 313 314 316 318 319 319 319 320 321 321 321 321 322 321 320 321 321 319 319 319 319 318 318 317 317 317 315 314 311 310 311 310 309 311 314 315 314 315 315 315 315 313 312 313 315 313 310 307 304 304 305 309 312 309 307 309 309 307 309 312 313 313 313 312 311 310 310 309 308 307 307 307 307 307 306 306 305 303 303 303
311 312 311 311 311 311 311 312 313 314 315 315 317 318 319 320 321 321 320 320 321 320 319 318 318 317 318 317 316 315 314 313 311 309 308 308 306 308 313 314 314 314 315 315 314 313 310 307 310 314 311 306 304 304 303 302 305 311 313 310 310 309 308 310 312 312 312 311 310 310 310 309 308 307 307 306 306 306 305 304 304 302 301 301 301
310 311 311 311 311 311 311 311 311 312 312 312 314 316 317 317 318 319 319 319 319 318 317 316 315 316 316 316 314 312 311 310 309 306 304 303 302 307 312 312 312 313 313 313 313 311 307 305 306 308 307 305 304 303 303 302 305 311 312 311 310 309 308 309 310 311 310 309 309 308 308 307 306 306 306 305 305 304 304 303 302 300 299 300 300
308 309 309 310 310 311 311 310 311 311 311 312 313 314 315 315 316 316 316 316 316 316 316 315 314 314 314 313 313 311 308 307 304 301 302 301 301 306 311 311 312 313 313 314 313 309 306 306 306 305 305 305 304 303 302 302 305 310 312 310 310 309 309 308 308 308 308 307 306 306 306 305 305 305 305 304 304 303 302 301 300 299 299 300 300
307 307 308 308 309 310 310 311 311 311 311 312 313 313 313 313 314 314 314 313 314 314 314 313 313 312 312 311 310 309 306 303 302 302 302 302 303 306 311 312 312 313 312 313 313 311 307 306 306 306 305 304 303 303 302 302 304 308 309 309 309 309 309 309 308 307 307 305 305 305 305 304 304 304 303 302 302 301 300 300 299 299 299 299 299
305 305 306 307 308 308 309 310 310 310 310 311 312 311 312 312 312 313 312 312 312 312 311 311 310 310 311 310 308 308 306 302 302 303 303 303 304 306 309 311 311 312 311 311 312 311 309 306 305 304 303 303 302 303 303 303 303 305 306 307 307 308 308 307 307 306 305 304 304 304 303 303 303 302 302 301 301 300 299 299 299 299 299 299 298
302 303 304 305 306 307 307 307 307 306 307 309 310 310 310 311 311 312 311 311 310 311 310 310 309 309 310 309 308 309 308 303 302 304 303 304 304 304 306 309 309 309 310 311 310 311 309 306 303 301 302 302 301 302 302 302 303 304 304 305 306 306 306 305 305 304 303 303 303 303 302 301 301 301 300 300 300 300 299 299 299 298 298 298 297
301 302 303 303 304 304 305 304 304 304 305 305 307 308 309 310 310 311 311 310 310 310 310 310 309 309 309 309 309 310 309 304 304 305 304 304 305 304 304 306 305 305 309 310 309 310 308 304 301 300 301 301 301 301 302 301 302 303 303 303 303 303 303 303 303 302 302 302 301 301 300 300 300 300 300 299 299 299 299 298 298 297 296 296 296
301 302 301 301 302 302 303 304 304 304 304 304 304 305 307 309 310 310 310 310 310 310 310 310 309 309 309 309 309 310 308 304 304 305 304 304 304 304 304 304 303 303 306 310 310 308 305 301 301 301 301 301 302 302 302 302 302 302 302 302 301 301 300 301 301 301 300 300 300 300 300 300 299 299 299 299 298 297 297 296 296 296 296 296 296
301 301 300 301 302 302 303 304 304 304 304 305 304 305 306 307 308 309 310 310 310 310 310 310 310 309 309 309 310 310 308 306 305 305 305 304 304 304 304 304 302 302 305 309 308 305 302 301 302 301 301 302 302 303 303 303 303 302 302 301 300 300 299 299 299 299 299 299 299 299 299 299 298 298 298 297 296 296 296 296 296 296 296 295 295
301 301 301 301 301 302 302 303 303 304 304 304 304 305 305 306 306 308 308 309 309 310 310 310 309 309 309 308 308 309 309 308 308 306 305 304 304 303 303 302 301 301 304 305 304 302 302 302 302 302 302 302 303 303 304 303 303 302 301 300 299 299 299 298 298 298 298 298 298 298 298 298 297 297 296 296 295 295 295 295 295 295 294 294 294
301 302 302 301 301 301 302 302 303 303 303 303 304 304 304 304 305 306 307 307 308 308 309 309 309 309 309 309 309 308 309 309 309 307 305 304 303 303 301 301 301 301 302 302 302 301 302 302 302 303 302 303 303 303 303 302 301 300 299 299 298 298 297 296 295 295 296 297 298 298 297 297 296 295 295 295 295 295 294 294 294 294 293 293 293
301 301 301 301 301 302 302 302 302 302 302 302 302 303 303 302 303 304 305 306 307 307 308 308 308 308 308 309 309 308 308 309 309 308 306 303 303 302 301 301 302 302 302 301 301 301 302 303 303 303 303 303 303 302 301 301 299 298 298 298 297 297 297 295 295 296 297 297 297 297 296 296 295 295 295 294 294 294 294 293 293 293 293 293 292
299 300 300 300 301 301 301 301 301 301 302 301 302 302 301 301 302 303 304 305 306 306 307 307 308 308 307 307 308 307 307 308 308 307 307 305 303 302 302 301 302 302 302 301 301 302 303 303 303 303 303 303 302 301 300 299 298 298 298 297 296 297 297 296 296 297 297 296 295 295 295 295 294 294 294 293 293 293 293 293 292 292 292 292 292
298 298 299 299 300 300 300 300 301 301 301 301 301 301 301 301 302 302 303 304 305 306 306 307 308 308 308 307 307 307 307 307 306 306 306 306 304 302 302 301 302 302 301 301 302 303 303 303 303 303 302 301 301 300 299 298 297 297 297 296 296 296 295 295 296 296 295 294 294 294 294 294 294 293 293 293 293 292 292 292 291 292 292 292 292
297 297 298 298 298 298 298 299 299 299 300 300 300 300 300 301 301 301 301 302 303 304 305 305 306 307 306 306 306 306 306 307 306 305 305 305 304 303 302 301 302 302 301 301 302 303 303 303 302 302 301 301 300 299 298 297 297 296 296 296 295 295 294 294 295 294 293 294 294 294 294 294 293 293 293 292 292 292 291 291 291 291 291 291 292
296 297 297 297 297 297 297 298 298 298 298 299 299 299 300 300 300 300 300 300 300 301 301 302 302 302 302 303 305 306 306 306 306 305 305 304 304 303 302 302 301 301 301 302 302 302 302 302 301 301 300 300 299 298 297 297 296 296 296 295 295 294 294 294 294 293 293 294 294 294 294 293 293 293 292 292 292 291 291 291 291 291 291 291 291
296 296 296 297 297 297 297 297 297 297 298 298 298 299 299 299 300 300 299 299 299 299 299 299 299 299 299 300 303 304 305 305 306 306 305 305 305 304 303 302 302 302 303 303 302 302 302 302 301 300 299 299 298 297 297 296 296 295 295 295 294 294 294 294 293 293 293 293 293 293 293 293 293 292 292 292 291 291 291 291 291 291 291 291 291
295 295 296 296 296 296 296 296 297 297 297 297 297 298 298 298 299 299 299 299 299 299 299 299 299 299 298 298 300 302 303 304 305 305 304 304 304 304 303 303 303 303 303 303 302 302 301 301 300 299 298 298 297 297 296 296 295 295 295 294 294 294 293 293 293 293 293 293 293 293 293 293 292 292 292 292 291 291 291 291 291 291 291 291 291
295 295 295 296 296 296 296 296 296 296 297 297 297 297 297 297 298 298 298 299 299 299 300 300 301 300 299 298 298 300 301 302 303 303 302 302 302 303 303 303 303 303 303 302 301 301 301 300 299 299 298 297 297 296 296 295 295 294 294 294 293 293 292 292 293 293 292 292 293 293 293 292 292 292 292 291 291 291 291 291 291 291 290 290 290
296 296 296 296 296 296 296 296 296 296 296 296 296 297 297 297 297 297 297 298 298 299 299 300 301 301 300 299 298 298 299 301 301 302 301 301 302 302 303 302 301 302 302 301 301 300 300 299 299 299 298 297 296 295 295 295 294 294 294 293 293 292 292 292 292 291 291 292 293 293 292 292 292 292 292 291 291 291 291 291 290 290 290 290 290
296 296 296 296 296 296 296 296 296 296 296 296 295 296 296 296 296 297 297 297 298 298 298 298 299 300 301 300 298 298 298 299 300 301 301 301 301 301 300 300 300 301 300 300 299 299 299 299 299 298 297 296 296 295 295 295 295 294 293 293 292 292 291 291 292 291 291 292 293 292 292 292 292 292 291 291 291 291 291 290 290 290 290 290 290
296 296 296 296 296 296 297 297 297 296 295 295 295 295 295 295 296 296 296 296 296 297 298 298 299 300 300 300 299 298 298 298 300 300 300 299 300 301 300 299 299 298 298 298 299 298 298 298 298 298 297 296 296 296 295 294 294 294 293 293 292 292 291 291 292 292 292 292 292 292 292 292 292 292 291 291 291 291 290 290 290 290 290 290 290
296 296 296 296 296 297 297 296 296 295 295 294 294 294 294 294 295 295 296 295 295 296 297 298 298 299 300 300 300 299 298 298 299 299 298 299 301 301 299 298 297 297 297 298 298 298 298 297 297 297 296 296 296 295 294 294 294 293 293 292 292 291 291 291 292 293 292 291 291 291 292 291 291 291 291 291 291 290 290 290 290 290 290 290 290
296 296 295 295 295 296 296 296 295 295 294 294 294 294 294 294 294 295 295 295 295 295 296 297 298 299 299 300 300 299 298 299 299 299 299 300 300 299 297 297 297 297 297 298 298 298 297 296 296 296 295 295 295 294 294 293 293 293 293 292 292 291 291 291 292 292 291 290 290 290 290 290 290 291 291 291 291 290 290 290 290 290 290 290 290
296 295 295 295 295 295 295 295 296 295 294 294 294 294 294 294 294 294 294 294 294 294 295 296 297 298 299 300 300 299 299 299 300 300 300 300 298 297 297 298 298 297 297 297 297 297 296 296 295 295 294 294 294 293 293 293 292 292 292 291 291 291 290 291 292 291 290 289 289 289 290 290 291 291 291 291 291 290 289 290 290 290 290 290 290
296 295 295 294 294 294 294 295 295 295 294 294 294 294 294 294 294 294 294 294 294 294 295 296 297 298 299 299 299 299 299 299 299 299 298 298 297 297 298 298 297 297 297 296 296 295 295 295 294 294 294 293 293 293 292 292 292 291 291 291 291 291 291 291 291 290 289 289 289 289 289 291 291 291 291 291 290 290 290 290 290 290 290 290 290
296 295 295 294 294 294 294 294 294 294 293 294 294 294 294 294 293 293 294 294 294 295 295 296 296 297 298 299 298 298 298 297 297 297 297 297 297 297 298 297 297 296 296 295 295 294 294 294 294 294 293 293 292 292 291 291 291 291 291 290 291 291 290 289 289 289 289 289 289 289 290 291 291 291 291 290 290 290 290 290 290 290 290 290 290
296 296 295 295 294 294 294 294 294 293 293 293 293 293 293 293 294 294 294 294 294 295 295 295 296 297 298 298 298 298 297 296 297 297 296 296 297 297 296 296 295 295 294 294 294 293 293 293 293 293 292 292 292 291 291 292 292 292 291 290 290 290 289 289 288 288 289 289 289 289 289 290 291 291 291 290 290 290 290 290 290 290 291 290 291
296 296 295 295 294 294 293 293 293 293 293 293 293 293 293 293 293 294 294 295 295 295 295 295 295 296 296 296 296 296 295 295 296 296 295 295 295 295 294 294 294 294 294 293 293 293 293 293 293 292 291 291 291 291 292 292 291 291 290 289 289 289 288 288 288 288 288 289 289 289 289 290 290 290 290 290 290 290 290 290 290 291 291 291 291
296 296 296 295 295 294 294 293 293 293 293 293 293 293 293 293 293 293 293 294 294 294 295 295 295 295 295 294 294 294 294 294 294 294 294 294 294 294 294 294 294 294 294 293 292 292 292 292 292 291 291 291 291 292 291 291 290 289 289 288 288 288 288 288 288 288 288 288 289 289 289 290 290 290 290 290 290 290 290 291 291 291 290 290 291
296 296 296 295 295 295 294 294 293 293 293 292 292 292 292 292 292 292 292 293 293 293 293 293 293 293 293 293 293 293 293 293 293 293 293 293 294 294 294 294 294 294 294 293 292 291 291 291 291 291 291 291 291 291 291 290 289 289 288 288 288 289 288 288 288 288 288 288 288 289 289 289 290 290 290 290 290 291 291 291 291 291 290 290 291
296 296 296 295 295 295 295 294 294 294 293 293 293 292 292 292 292 292 292 292 293 293 293 293 293 292 292 292 292 292 292 293 293 293 294 294 294 294 294 293 293 293 292 291 290 290 291 291 291 291 291 291 291 291 290 289 289 288 288 288 289 289 289 289 288 288 287 288 288 288 289 289 290 290 290 290 290 291 291 291 291 290 290 291 291
296 296 296 296 295 295 295 294 294 294 294 294 293 293 293 293 293 293 293 293 293 293 293 293 293 293 293 292 293 293 293 294 294 294 294 294 294 293 293 292 291 291 290 289 289 290 291 291 291 291 291 291 290 290 289 289 288 288 288 289 289 289 289 289 289 289 288 287 287 288 289 289 289 289 290 290 290 291 290 290 290 291 291 291 291
295 295 295 295 295 295 295 295 294 294 294 294 293 293 293 293 293 293 294 294 293 293 293 293 294 294 293 293 294 294 294 294 294 293 293 293 293 293 293 292 291 290 290 289 290 290 291 291 291 291 291 290 290 289 288 288 288 288 289 289 290 290 290 290 290 290 289 287 287 287 288 289 289 289 289 290 290 290 290 290 290 291 291 292 291
294 294 295 295 295 295 295 294 294 294 294 294 294 293 293 293 293 293 294 294 294 294 294 294 294 294 294 294 294 294 294 294 293 293 293 293 293 293 293 292 292 291 291 289 289 290 290 290 290 290 290 289 289 289 288 288 288 288 289 290 290 290 290 290 290 291 290 288 287 287 287 288 289 289 289 290 290 290 290 290 291 291 291 291 291
Wind_Speed
16 16 17 16 17 18 18 17 15 13 12 13 14 15 16 18 18 18 16 15 14 13 12 12 12 12 12 11 10 10 9 9 9 9 9 9 9 10 10 9 7 7 8 7 7 7 7 6 5 7 7 8 7 6 6 7 6 6 6 5 5 5 5 6 7 6 3 3 4 2 1 3 2 1 2 5 8 7 5 10 14 13 12 16 18
15 14 15 16 18 19 18 16 15 13 13 13 14 16 17 18 18 18 16 15 14 14 13 13 12 12 11 11 10 10 9 9 9 8 7 7 7 8 8 7 6 7 7 5 4 5 6 4 3 4 5 7 6 4 4 4 4 4 5 5 5 5 5 5 5 4 3 3 2 1 2 3 1 2 5 6 7 5 2 7 9 6 7 12 15
13 13 13 15 17 18 17 16 14 14 14 14 14 16 17 17 17 17 15 14 14 14 13 13 13 12 12 11 10 10 9 9 8 7 7 6 6 6 6 6 5 5 5 4 3 3 4 3 3 3 3 5 5 3 3 3 4 4 4 4 5 5 4 4 3 3 2 1 0 2 1 3 1 1 3 6 9 7 2 4 5 4 5 9 11
11 10 10 11 14 17 17 16 15 15 15 15 15 16 17 17 16 15 14 13 14 14 14 14 13 13 13 12 11 10 9 8 7 7 6 6 6 6 5 5 5 4 4 5 4 4 3 3 3 3 3 3 3 2 2 3 3 3 3 3 3 3 3 3 2 1 0 1 1 1 1 4 3 2 3 6 8 7 4 5 6 5 7 9 11
11 9 8 9 11 15 17 16 15 16 16 16 15 15 17 16 15 14 13 13 14 14 15 14 14 13 13 12 11 11 10 9 8 8 8 7 7 6 6 6 5 5 5 6 5 5 5 4 4 4 4 4 3 2 2 3 3 3 3 2 1 1 1 1 1 1 2 2 2 3 3 3 3 5 5 5 6 6 5 5 7 7 8 10 12
10 9 9 9 10 12 15 15 15 16 18 18 17 15 16 15 14 14 13 13 14 14 15 14 14 13 12 12 11 11 10 9 9 9 8 8 9 8 8 7 7 6 7 6 6 6 6 6 6 6 6 5 5 5 6 6 5 5 5 5 5 3 1 0 1 2 2 3 4 5 5 5 5 5 5 6 7 7 6 5 7 9 9 10 13
9 9 9 9 8 10 13 13 14 16 17 18 18 17 15 14 14 14 14 14 14 14 14 14 14 14 13 12 12 11 11 11 10 10 10 10 10 10 10 10 9 8 9 8 8 8 7 7 8 7 6 7 7 8 8 9 9 9 8 9 8 6 5 2 2 3 4 4 5 6 6 6 7 7 6 7 8 8 7 7 9 11 11 11 13
8 8 8 8 8 10 11 11 13 15 16 17 19 19 16 14 14 14 14 15 16 15 15 14 14 14 13 13 13 12 12 12 11 11 11 10 11 11 12 13 12 12 12 11 11 11 9 9 9 8 7 8 9 10 11 10 10 10 9 10 11 11 7 4 5 5 5 6 7 7 7 7 8 9 8 7 7 8 8 10 13 13 12 12 14
6 6 6 7 8 9 9 11 12 13 14 14 16 18 18 16 16 15 15 15 16 16 16 15 15 15 14 14 14 13 14 13 13 13 13 11 12 13 14 15 15 14 15 15 14 14 12 10 10 10 10 10 10 11 12 11 11 11 10 9 10 10 7 6 7 7 7 9 9 9 9 9 8 9 10 9 8 10 11 12 14 15 14 15 15
5 5 5 5 5 7 7 8 10 11 13 13 12 15 18 19 19 19 18 17 17 17 16 16 16 16 16 17 17 16 17 17 16 16 15 14 15 15 15 17 18 17 17 18 17 16 14 12 12 12 12 11 10 10 11 10 11 12 10 9 9 8 8 8 8 9 9 10 10 10 11 12 11 11 12 12 11 13 13 11 14 16 15 15 15
6 5 5 5 4 5 5 5 6 8 10 11 10 12 15 18 19 20 20 20 20 18 17 17 17 17 18 19 19 20 19 17 16 16 16 16 18 18 17 18 20 20 20 18 17 15 13 11 11 11 9 9 9 9 9 9 10 11 12 13 13 12 11 10 9 10 10 10 12 12 11 12 12 10 10 11 11 13 13 11 13 15 14 14 16
7 6 6 5 4 5 4 4 4 5 6 7 8 9 10 12 15 18 20 21 21 20 19 19 19 20 20 18 18 20 18 15 14 15 16 17 19 20 19 18 18 19 18 16 13 11 10 9 8 6 4 5 5 5 6 7 8 9 11 13 14 15 15 14 13 12 11 9 10 10 10 11 11 8 10 13 14 16 16 14 13 13 14 16 19
6 6 6 4 4 4 4 4 4 4 5 5 6 7 8 9 10 12 15 18 19 21 21 21 20 20 19 16 15 16 14 12 15 16 16 16 16 17 17 15 13 11 9 8 7 6 6 5 4 3 3 3 3 3 4 5 7 9 10 12 13 14 15 17 17 17 16 13 10 8 10 12 12 11 14 17 17 18 19 18 17 18 21 22 23
7 7 6 5 4 3 2 3 3 3 4 5 6 7 8 9 10 12 15 18 20 21 21 20 19 19 19 18 17 14 12 13 15 13 12 12 10 10 9 8 6 3 1 2 3 4 5 5 3 1 2 2 2 2 3 5 7 9 10 11 12 13 14 15 17 18 18 18 16 13 13 15 15 15 17 18 19 20 21 21 22 24 26 28 30
9 8 8 7 5 4 3 2 1 2 3 4 5 6 6 9 10 12 15 17 17 18 18 18 18 18 18 20 21 18 16 14 13 11 9 9 8 7 6 5 4 3 4 5 5 6 6 7 6 4 3 5 5 4 4 4 6 9 12 12 11 12 14 15 17 18 18 19 18 18 18 18 17 18 19 19 20 21 21 22 24 26 28 30 30
8 7 7 7 6 5 4 3 1 1 2 3 4 4 5 7 8 10 12 12 12 15 17 17 18 18 17 18 17 16 15 14 12 10 10 9 8 7 6 5 5 6 7 7 6 6 6 6 5 4 5 7 6 5 6 6 7 9 12 11 9 11 15 15 15 16 17 18 18 18 19 19 18 19 20 20 21 22 23 24 25 26 25 23 22
7 6 6 6 5 5 4 3 2 1 2 3 3 4 4 5 6 8 9 9 10 13 14 15 16 16 13 11 9 10 14 14 12 11 11 11 10 8 6 6 6 6 6 6 6 7 8 6 5 4 6 7 5 6 8 7 7 8 8 7 7 10 14 14 14 15 16 17 17 18 19 20 21 22 22 21 21 21 23 25 25 24 21 19 20
7 6 6 5 5 4 4 3 3 2 3 4 4 5 5 5 6 7 7 8 8 9 8 8 10 11 10 9 9 10 12 13 12 11 11 11 11 9 7 7 7 6 6 6 7 8 8 7 7 7 8 8 7 8 8 6 5 6 7 8 8 9 12 12 13 14 15 16 18 20 21 22 22 22 22 22 23 24 25 25 24 23 20 18 18
7 6 6 5 5 4 4 4 4 4 4 4 4 5 5 6 6 7 7 7 7 8 7 7 8 9 9 10 12 12 11 11 11 10 10 10 9 10 8 7 8 7 6 6 7 8 8 8 9 10 10 9 9 8 7 5 4 5 6 7 8 10 13 13 12 14 15 16 18 19 21 22 23 24 25 26 26 26 24 23 22 20 17 15 17
6 6 5 5 4 4 4 4 4 4 5 5 5 6 6 7 7 8 8 7 8 9 10 10 10 11 11 13 15 13 11 11 10 9 10 9 9 11 10 8 8 7 6 7 7 7 8 9 10 10 10 9 8 8 7 6 5 6 7 8 9 11 14 14 14 16 16 17 19 21 22 23 24 24 24 24 24 23 20 20 21 18 14 16 18
6 6 5 5 5 4 4 5 6 7 6 6 7 7 7 8 8 9 9 9 10 10 11 12 13 13 13 14 15 14 13 12 11 10 9 8 8 10 9 8 8 7 7 7 7 6 7 8 9 10 9 9 8 8 7 7 8 9 10 11 13 14 15 16 17 18 18 18 18 19 18 17 16 16 16 17 19 20 20 21 22 18 16 18 21
10 9 8 7 8 7 8 10 12 12 11 10 10 9 9 10 10 10 11 12 12 12 13 14 14 15 15 15 15 15 16 15 13 11 10 8 7 7 8 9 9 8 8 8 8 9 10 8 7 8 8 8 8 8 8 8 9 10 10 12 14 15 16 17 16 15 13 13 12 12 12 12 12 12 13 15 16 17 17 18 19 19 20 21 21
12 10 10 10 11 12 13 15 16 17 17 16 16 14 12 12 12 13 13 14 14 15 16 17 18 17 17 17 16 17 18 18 14 12 12 10 9 8 9 10 9 8 8 8 9 12 12 9 7 7 8 9 9 9 9 9 8 9 10 11 13 14 15 15 12 10 9 9 10 11 11 11 12 12 13 13 14 15 19 21 22 23 22 21 22
12 12 14 14 14 14 14 15 16 17 17 19 20 19 16 15 15 16 16 16 17 18 18 19 21 21 20 20 19 19 22 21 16 13 13 13 12 10 9 9 8 7 8 9 11 12 10 7 7 8 8 8 9 9 9 8 8 9 10 10 10 11 11 9 7 8 8 9 10 10 10 10 11 11 11 13 15 18 20 20 20 21 20 19 20
15 15 16 14 14 14 14 14 15 16 16 18 19 20 18 17 17 18 18 19 20 21 21 22 23 23 22 21 20 20 22 22 20 17 15 15 14 12 10 10 9 8 10 12 13 11 7 6 7 8 7 8 9 9 9 9 10 10 10 10 10 8 6 4 5 7 8 8 9 9 9 9 9 10 14 18 20 20 19 17 17 19 20 18 18
15 16 16 15 15 16 16 16 16 16 17 17 18 19 19 18 18 19 20 21 23 23 24 26 27 26 24 23 22 21 20 21 22 21 19 18 17 15 12 11 11 11 12 14 13 10 7 6 7 7 8 9 9 10 10 11 11 11 10 10 7 3 3 5 7 8 8 8 8 8 9 9 10 14 17 17 16 15 15 15 16 16 16 15 15
15 15 16 16 16 17 17 17 17 17 18 18 18 19 19 19 20 21 21 22 24 25 26 28 29 28 26 23 23 24 24 22 22 22 22 22 19 16 15 14 13 13 14 13 10 9 8 8 8 8 8 9 9 10 12 12 11 9 7 5 3 4 7 9 10 8 7 6 7 7 8 10 12 14 14 12 11 12 13 13 14 14 13 14 15
15 16 16 16 16 17 17 18 18 19 19 19 19 20 20 21 22 22 23 23 24 25 27 29 29 29 27 23 23 26 26 24 23 22 22 22 21 18 18 17 15 15 15 12 10 9 9 9 9 9 9 9 9 9 9 8 5 3 2 2 3 6 8 9 8 6 4 5 7 9 10 10 11 11 11 11 12 12 12 12 13 13 14 14 15
16 16 16 17 17 18 18 18 19 19 19 20 20 21 21 22 23 22 22 23 23 25 27 26 24 25 25 25 27 28 25 24 25 21 18 19 20 19 18 16 16 17 15 11 10 10 10 11 12 11 10 9 7 5 4 3 3 3 5 5 3 4 5 6 5 4 6 9 10 10 10 11 11 10 11 11 11 11 12 13 13 13 14 14 15
17 17 16 17 17 17 18 18 19 20 21 21 22 22 22 23 25 24 24 24 24 25 27 26 22 20 21 23 27 27 24 23 23 21 20 20 19 18 18 17 18 19 15 11 11 12 12 13 12 10 9 8 6 7 7 5 4 4 6 6 2 4 6 4 3 6 9 11 9 8 9 11 11 10 11 11 11 12 12 12 13 13 14 15 16
15 16 16 17 18 18 19 20 21 21 22 22 23 24 24 24 26 27 28 28 28 27 28 29 27 25 24 23 25 27 26 24 24 25 25 23 20 21 22 21 21 19 13 11 13 14 13 12 11 10 10 9 7 8 8 5 4 4 4 3 2 4 5 3 5 9 10 8 7 8 9 10 10 10 11 11 12 13 13 13 13 13 13 14 16
14 14 15 16 17 17 19 21 21 21 21 22 22 23 24 25 26 27 28 30 31 31 30 31 32 32 29 25 24 25 22 20 20 23 23 19 21 27 28 24 20 17 13 13 14 13 12 12 11 11 10 9 8 8 7 6 5 4 3 2 2 3 3 4 8 10 8 6 7 9 10 10 11 11 11 12 13 14 14 14 13 13 14 15 15
14 14 15 15 15 16 17 19 19 19 20 22 21 22 23 24 25 27 27 27 28 28 28 28 29 31 31 28 26 25 20 16 17 19 19 21 26 30 29 23 18 16 16 15 13 12 13 12 11 11 10 9 9 8 7 6 5 4 3 3 2 2 3 5 8 8 7 7 9 9 10 11 11 11 11 12 13 13 14 14 14 14 14 15 15
13 14 14 14 15 15 15 15 16 17 19 20 20 21 22 22 23 24 24 24 24 25 25 24 23 25 28 29 28 27 25 22 21 19 18 21 26 27 25 22 19 18 18 16 12 12 12 11 11 11 10 9 9 8 6 6 5 4 3 2 2 2 3 5 5 6 7 8 8 9 10 11 10 11 12 12 13 13 14 14 14 14 14 15 16
11 12 12 13 14 14 14 14 14 15 16 18 19 20 21 22 22 22 21 21 22 22 22 20 17 18 22 27 29 28 26 25 26 24 21 19 21 22 24 23 21 20 18 14 11 10 11 10 10 9 8 9 9 7 7 7 5 3 3 2 2 3 4 4 4 7 9 8 7 9 11 11 11 11 11 12 13 14 14 14 14 15 16 17 17
10 10 10 11 11 12 13 14 14 15 16 17 18 20 22 22 22 20 18 18 19 19 19 18 16 14 16 21 27 29 27 24 22 22 20 16 14 17 21 20 19 20 19 15 12 11 10 9 9 8 8 9 8 7 7 6 4 4 4 3 2 3 3 3 5 8 9 7 7 10 12 11 11 11 11 12 13 13 14 15 15 16 17 18 19
8 9 10 12 13 15 16 16 17 18 19 19 20 22 24 24 24 21 18 17 18 18 18 18 18 16 14 16 22 26 27 24 19 18 18 17 14 14 16 17 18 21 21 18 15 13 10 9 9 9 9 9 8 7 7 5 4 4 4 3 2 3 4 5 7 11 11 7 7 10 11 12 12 11 11 12 13 13 14 14 15 16 17 17 18
8 10 12 14 15 15 16 17 18 20 19 19 20 21 23 25 26 24 20 20 21 20 18 17 17 16 15 16 19 23 25 24 23 22 20 17 16 17 17 16 18 19 18 16 14 12 10 9 9 9 9 9 8 7 6 5 4 3 3 2 2 4 5 6 8 11 11 9 9 10 11 11 12 12 11 12 12 12 13 13 14 15 15 16 16
8 10 13 14 13 13 15 17 18 17 17 17 18 18 18 22 25 24 20 17 17 18 19 17 15 15 16 15 15 18 22 24 25 24 20 16 16 17 16 16 17 15 15 15 14 11 10 11 10 9 9 9 8 7 6 5 4 3 2 2 2 4 5 5 5 7 8 9 10 10 11 11 12 11 10 10 11 11 12 13 14 15 16 17 17
9 9 11 13 13 12 13 15 15 14 14 15 15 14 13 14 19 21 19 16 13 15 17 16 12 14 17 15 12 13 19 23 23 22 20 18 19 19 18 18 18 16 14 14 13 11 11 11 10 10 9 9 8 7 6 5 3 2 2 2 2 3 4 5 5 7 9 11 11 12 13 14 13 12 11 10 10 11 11 13 14 15 16 17 18
10 9 10 12 14 13 11 11 12 13 12 12 10 9 8 8 10 14 16 16 15 16 15 14 12 13 14 14 11 12 16 20 20 20 20 21 21 20 17 16 17 16 14 13 12 12 12 12 11 10 9 8 7 6 4 4 3 1 1 2 3 4 4 4 6 9 10 11 13 14 16 16 14 13 13 12 12 12 12 13 14 15 16 17 18
10 10 10 10 12 14 12 10 10 11 10 9 7 6 5 4 4 7 11 14 16 16 13 11 9 10 9 10 10 12 13 14 16 18 19 19 18 17 15 16 18 18 16 13 13 14 13 11 10 9 8 7 6 4 3 4 3 2 1 3 5 6 5 4 7 10 10 11 13 16 17 16 14 14 14 14 13 12 12 14 15 16 17 18 19
10 10 10 10 11 12 12 10 9 10 10 9 8 6 4 2 1 2 5 8 9 10 8 6 6 10 11 9 11 15 16 15 17 20 20 19 19 18 17 17 19 19 16 13 13 13 12 11 10 8 8 9 9 8 6 5 5 4 4 5 5 6 6 6 8 9 9 10 12 15 17 16 15 15 15 13 11 12 13 15 17 17 18 18 20
11 10 11 11 10 11 11 12 12 12 11 9 8 8 7 6 4 3 2 3 3 4 5 5 6 10 11 11 15 19 19 19 21 24 24 25 27 25 22 19 19 18 15 13 12 12 11 10 9 8 7 10 12 11 8 6 6 5 4 4 4 5 5 6 7 8 8 10 12 15 16 16 16 16 14 12 12 15 17 17 18 19 18 19 19
11 11 11 12 11 10 11 12 12 12 12 10 9 8 7 6 5 4 4 4 4 3 4 5 6 7 8 10 14 16 15 16 20 22 24 26 27 25 22 20 19 18 16 15 14 13 11 10 10 8 6 7 9 9 7 6 5 4 3 4 4 4 5 6 7 7 8 9 12 14 16 16 17 16 14 13 15 17 19 18 18 19 19 18 18
10 10 10 11 12 11 11 11 11 11 11 12 12 11 10 9 10 10 10 9 9 10 11 10 10 10 10 12 15 15 13 14 17 21 23 24 23 21 19 17 16 15 14 13 14 14 13 11 9 7 7 8 8 7 6 5 3 2 3 4 4 4 6 7 7 8 8 9 11 14 15 16 16 15 14 14 17 18 19 18 18 18 18 16 16
10 9 9 10 10 10 11 12 13 13 12 13 14 14 13 12 12 13 14 14 13 14 13 12 13 14 14 15 17 17 16 17 19 21 23 22 21 20 18 14 11 10 10 10 12 14 14 12 7 5 7 8 7 6 5 4 2 3 4 4 4 5 7 8 8 9 8 9 11 13 14 16 16 15 14 16 18 18 18 17 17 18 17 16 16
8 8 8 8 9 9 10 11 12 13 13 13 14 15 15 15 15 14 13 13 12 11 11 11 12 13 14 15 17 19 20 22 23 22 21 20 18 16 13 10 7 7 10 11 11 11 12 12 9 6 7 7 6 6 5 3 3 4 4 4 5 6 7 8 9 10 10 10 10 12 14 16 17 16 15 16 17 17 17 16 17 18 18 17 17
7 7 7 8 7 8 8 9 9 10 11 11 12 13 14 16 17 16 15 14 14 14 15 15 15 15 17 19 21 21 20 20 20 18 17 16 14 12 11 9 6 6 8 10 8 6 7 9 8 7 7 7 7 5 4 3 4 4 4 4 4 6 7 8 10 11 12 10 10 12 13 15 16 16 15 15 15 15 15 16 18 18 17 16 16
6 6 6 7 7 7 7 7 7 8 8 9 10 11 11 13 14 15 15 16 16 15 16 16 16 17 17 18 18 18 17 17 16 15 14 13 12 10 9 8 7 6 5 5 4 4 5 6 7 7 7 7 6 5 4 4 3 3 3 4 4 6 7 7 9 12 13 12 11 11 12 13 15 17 15 13 13 14 15 17 18 18 15 15 16
5 5 5 5 6 6 7 7 7 7 7 7 7 8 8 9 11 11 11 12 12 12 12 12 12 13 13 13 13 13 13 14 14 14 14 13 12 10 8 6 5 5 4 4 4 5 5 6 7 8 8 7 6 4 4 3 3 3 3 4 5 5 6 7 8 11 13 14 13 11 11 13 15 16 14 12 12 13 14 15 17 17 14 13 14
Wind_Direction
184 187 191 192 189 189 196 202 202 200 198 189 179 177 175 171 171 170 167 164 162 165 169 168 164 161 155 152 152 149 147 145 138 132 132 132 135 134 122 110 114 124 119 114 114 107 93 87 103 109 101 90 72 56 62 64 62 72 77 78 85 79 72 91 108 120 124 109 120 136 48 74 104 43 2 354 357 5 351 343 356 7 357 340 333
180 181 188 190 188 192 198 203 202 200 200 195 187 186 184 179 176 172 169 167 163 163 170 171 168 164 160 159 159 156 156 154 148 147 149 149 148 142 136 134 144 149 138 125 139 144 128 118 132 136 125 116 106 93 76 56 50 69 72 76 84 79 81 98 109 115 113 103 132 172 30 64 117 321 346 1 12 22 341 338 356 4 349 341 331
170 171 177 184 189 194 199 204 203 199 200 199 194 193 190 183 180 177 174 172 166 166 175 175 169 167 166 166 166 164 165 165 161 162 165 167 170 170 170 172 175 174 154 131 152 185 171 171 186 185 167 142 131 130 117 81 62 73 77 76 86 85 80 93 96 95 109 78 123 193 43 26 36 351 336 338 356 14 357 322 340 328 327 347 333
163 165 169 178 189 195 199 205 204 199 199 199 197 200 200 193 186 184 182 177 172 175 181 176 170 172 172 172 173 173 176 180 174 172 176 176 184 195 197 198 195 186 171 166 184 207 201 208 223 225 220 185 152 122 124 122 95 90 101 86 93 103 85 78 46 14 166 327 320 226 331 348 351 1 330 324 342 357 352 335 344 327 304 326 334
161 163 170 178 186 190 193 200 205 202 199 194 191 200 209 203 192 189 189 185 182 182 182 178 176 179 179 178 181 180 183 188 180 180 188 184 185 193 190 195 201 193 194 200 201 206 204 199 207 221 225 201 170 147 152 155 123 110 131 118 114 137 93 50 358 315 256 263 273 282 313 310 303 326 326 322 333 332 326 335 343 336 312 321 335
165 167 177 183 186 187 188 194 202 203 201 198 192 194 205 205 193 190 192 190 189 188 186 184 184 185 185 186 191 190 189 191 187 190 200 200 199 202 199 206 210 204 214 221 210 212 215 204 208 224 222 201 188 190 192 187 172 172 184 174 165 184 212 236 293 274 262 269 258 269 294 284 281 311 313 310 324 326 319 320 333 336 322 315 325
179 180 186 188 185 185 187 190 198 203 205 205 202 196 196 200 197 197 198 197 197 195 193 194 193 194 197 197 198 198 196 197 197 196 201 207 213 219 221 225 225 223 232 233 219 221 221 210 219 234 227 215 216 219 224 224 216 218 221 200 203 259 284 248 252 256 253 272 268 266 281 276 277 297 301 298 308 313 308 306 315 323 320 312 320
183 184 186 181 178 184 190 192 196 201 204 208 212 207 199 198 201 203 205 206 206 203 202 205 204 205 210 208 206 208 206 202 202 204 208 212 218 224 230 235 236 234 237 233 222 221 218 214 224 231 226 228 235 241 248 247 234 238 250 237 241 273 283 238 242 257 255 266 268 266 276 277 277 284 285 286 296 297 298 305 309 312 314 312 315
166 170 174 171 173 179 189 195 192 193 198 205 212 211 206 204 205 206 210 212 212 210 211 214 213 213 217 213 209 210 207 203 206 215 217 218 224 228 233 240 241 237 237 233 224 219 216 213 218 225 236 248 256 256 258 257 246 244 257 262 261 268 262 241 251 259 260 265 265 264 271 274 276 279 279 281 288 286 289 303 308 307 309 310 308
149 161 165 167 169 169 184 199 191 187 197 202 205 209 212 211 210 211 210 205 206 211 216 220 218 217 218 215 212 212 210 213 223 230 230 232 237 239 238 243 247 242 237 230 221 216 212 209 219 235 250 261 263 262 260 257 251 244 239 244 253 252 242 241 250 257 261 266 267 271 276 276 277 283 285 289 296 294 292 297 301 302 307 309 306
136 142 143 145 155 163 178 194 193 196 206 210 211 217 222 222 224 227 223 217 217 216 213 214 216 221 226 226 227 226 219 223 235 241 246 249 252 251 245 246 250 247 240 233 222 213 205 204 223 241 252 253 251 256 261 257 252 247 238 240 252 258 251 244 244 251 260 266 269 276 282 281 280 281 280 280 284 286 285 290 297 302 307 306 304
132 123 116 124 138 149 160 168 181 197 207 217 222 220 223 226 229 233 232 229 227 222 219 221 225 233 239 239 241 236 228 235 250 251 253 256 258 257 250 248 254 254 248 242 231 217 200 193 212 229 228 236 247 255 262 258 252 250 248 250 258 263 261 256 247 242 245 255 268 279 281 276 275 275 266 265 268 272 278 287 295 296 298 299 300
109 104 103 114 124 131 148 162 176 198 206 219 226 221 222 223 222 227 228 228 229 229 230 233 235 239 241 239 239 237 234 250 262 260 258 258 258 255 247 244 255 261 251 237 226 213 191 178 208 239 220 220 250 263 261 261 257 253 253 255 260 263 263 264 260 252 246 243 247 267 275 266 262 265 266 271 280 284 284 288 291 293 296 298 297
88 89 92 89 93 106 126 151 174 215 222 222 231 231 234 238 236 232 231 232 233 232 232 236 238 239 239 239 242 249 258 262 258 252 248 245 239 234 229 231 245 255 216 177 180 187 180 167 175 245 256 241 251 250 243 257 269 269 263 258 259 264 265 264 264 264 260 252 246 250 261 261 261 268 275 282 288 288 287 290 291 292 294 295 296
84 82 81 76 76 76 67 87 146 240 245 239 245 245 241 242 236 228 229 233 234 233 234 240 243 243 245 251 255 257 256 247 235 224 217 214 213 211 211 209 203 192 184 178 178 184 184 178 167 160 207 234 247 253 239 243 263 276 282 277 269 269 270 268 268 270 269 263 255 252 259 267 272 278 283 288 290 290 291 293 293 294 297 299 300
77 73 70 68 65 60 54 51 46 328 280 273 267 258 247 236 226 228 238 239 238 243 245 244 246 248 249 255 256 247 230 218 212 210 205 206 212 209 205 203 194 191 188 178 179 188 192 186 163 160 222 236 245 261 258 252 250 259 278 286 273 265 270 273 274 271 265 262 260 261 269 276 281 283 286 290 291 292 293 293 296 300 303 301 298
63 59 56 53 44 37 34 19 5 337 286 284 271 261 259 243 226 233 240 233 232 246 250 244 244 245 241 238 236 225 216 211 214 217 212 211 207 193 195 208 198 196 197 190 200 213 215 209 181 189 243 255 259 263 265 266 254 243 251 253 240 253 269 272 267 262 258 257 260 267 273 278 281 284 287 290 291 293 295 297 300 302 298 293 291
44 38 34 30 18 6 0 346 333 315 296 287 266 252 256 254 243 236 230 224 228 238 241 233 228 224 218 211 207 212 218 217 218 217 208 203 193 179 191 211 202 201 206 201 218 231 233 233 228 232 257 272 276 275 277 275 252 231 226 224 226 251 272 276 269 260 256 257 262 268 272 275 280 283 287 290 292 295 296 296 296 295 291 290 293
28 20 12 10 3 348 329 312 303 294 288 284 272 261 258 252 243 235 230 230 231 227 216 207 202 199 201 204 205 214 225 224 217 206 193 192 185 175 189 208 201 201 205 199 220 242 243 242 249 256 266 273 278 284 288 280 250 219 220 234 244 251 255 263 272 273 268 265 266 269 273 278 283 287 290 293 294 296 298 299 302 303 296 292 295
8 2 356 352 343 331 322 309 289 276 279 281 271 263 261 253 240 234 234 233 229 222 212 209 208 200 198 206 212 217 225 221 210 196 187 184 175 172 184 205 202 199 205 198 206 238 249 244 247 255 265 274 279 282 281 268 238 216 217 228 236 236 236 243 260 272 277 277 279 284 289 294 297 300 304 307 307 308 308 307 311 312 302 294 296
326 325 329 327 318 313 312 295 268 254 261 275 273 261 254 251 243 236 234 232 231 226 218 218 221 212 204 211 213 210 215 217 207 197 193 185 177 172 176 197 204 198 206 206 199 217 241 247 250 255 264 272 273 271 269 256 238 231 226 222 224 231 240 252 263 272 279 286 291 295 298 300 301 302 307 309 307 307 308 308 311 311 299 292 293
301 303 303 298 292 289 289 283 273 261 256 258 262 260 253 250 247 241 237 236 237 235 226 223 226 223 217 216 209 204 212 215 207 208 212 211 217 211 192 201 210 202 209 220 210 208 226 250 264 262 263 268 267 263 260 254 246 242 237 231 232 239 249 260 269 275 281 287 290 289 289 290 288 288 289 289 289 288 287 287 288 282 273 273 279
298 294 287 282 281 282 281 281 278 273 267 261 258 258 257 253 249 245 242 240 241 239 232 226 226 227 224 220 212 210 218 219 214 222 231 226 227 228 214 215 221 211 213 221 207 208 230 257 267 256 258 263 263 260 260 259 254 250 249 250 252 255 259 263 267 269 273 277 278 280 284 285 285 285 286 285 281 273 265 265 271 275 276 278 281
292 286 283 282 281 280 277 277 276 273 272 269 264 262 261 258 254 250 247 245 244 241 237 231 229 228 225 223 219 217 221 224 225 230 234 230 227 226 223 230 232 212 202 200 198 212 239 258 250 250 260 260 258 261 262 261 263 268 272 273 274 276 276 273 269 269 273 279 283 284 285 285 287 290 284 275 273 272 275 284 292 293 290 288 283
285 283 282 280 278 275 271 270 269 267 266 267 266 265 261 258 256 252 248 247 246 243 240 237 233 230 226 223 221 219 221 225 230 234 234 232 230 229 229 233 228 203 185 190 205 224 249 251 242 251 256 251 254 259 259 263 274 283 288 289 290 293 288 273 269 274 278 282 282 281 282 285 287 281 273 274 280 286 293 297 290 278 276 281 283
281 279 276 274 272 271 269 268 266 264 262 261 261 261 258 256 255 252 250 249 247 246 244 240 236 235 232 229 226 223 218 219 226 232 234 230 226 225 223 219 210 196 190 198 215 231 240 241 246 251 249 249 254 254 255 265 276 284 290 294 296 290 269 268 271 272 276 280 282 282 282 284 284 282 282 287 294 298 299 297 289 281 282 291 292
277 274 274 275 273 270 268 266 263 263 262 260 258 256 254 254 253 250 250 249 248 248 246 241 239 239 238 234 230 227 224 222 225 230 230 224 218 216 214 209 203 200 201 207 217 226 232 239 243 244 247 251 254 256 263 270 277 286 300 307 286 259 267 276 281 282 280 279 282 284 283 286 293 297 300 303 300 295 296 298 298 297 296 295 293
274 273 272 272 270 269 268 266 265 265 263 260 258 256 255 255 253 250 250 250 250 251 250 246 243 241 238 237 238 238 234 222 215 219 222 220 216 213 209 206 205 206 207 212 219 224 230 234 233 237 245 250 256 266 274 275 275 278 270 246 256 278 293 305 315 317 300 274 277 283 286 291 297 301 302 301 298 299 303 301 297 296 296 295 292
278 276 273 272 271 269 268 267 267 267 265 263 261 260 258 256 253 251 251 249 247 247 248 247 245 240 239 242 245 245 238 220 213 218 220 217 218 222 220 213 211 215 217 220 222 224 225 226 230 236 238 239 244 240 225 219 211 226 256 267 255 254 283 310 326 305 281 281 289 294 297 299 301 300 301 302 301 302 301 297 296 296 294 291 289
282 280 277 276 274 272 272 271 269 267 266 265 263 262 261 257 252 249 246 244 242 240 239 239 237 234 237 242 245 245 243 240 241 243 234 220 219 230 235 226 217 220 224 218 215 222 225 225 228 224 212 209 204 190 193 206 201 218 269 297 274 239 270 293 280 278 293 302 306 305 303 302 301 300 301 301 300 301 300 298 297 297 294 291 290
286 283 279 276 275 275 275 274 272 270 268 267 266 264 264 262 258 254 251 248 246 243 240 238 239 241 247 253 254 249 245 247 253 251 242 231 220 222 229 225 218 221 223 212 214 222 219 214 211 199 189 191 191 186 192 204 200 207 252 289 265 272 305 309 277 292 313 320 310 304 303 302 301 299 299 299 300 300 301 299 297 295 293 292 291
288 286 284 281 280 278 273 267 267 269 270 269 268 266 264 263 262 261 261 259 257 255 253 250 249 251 254 255 255 250 240 236 238 235 232 223 209 211 220 222 217 217 217 211 213 213 203 196 193 187 185 186 187 192 197 202 210 220 233 239 247 282 307 291 291 309 326 319 304 308 307 302 300 299 297 298 299 299 299 298 298 296 294 292 292
286 285 285 283 280 280 277 270 268 272 274 271 268 265 264 264 263 263 264 264 260 260 263 262 259 256 253 248 247 246 240 227 218 213 210 208 206 210 215 216 213 213 212 209 205 196 191 190 186 183 183 180 184 197 203 199 207 214 206 216 252 283 292 297 309 321 321 312 312 314 308 302 302 300 298 298 299 299 299 298 297 297 296 295 295
288 284 284 283 278 277 281 280 276 275 274 271 268 267 266 265 266 267 267 264 260 260 264 268 268 260 251 244 242 243 242 237 228 217 206 203 205 208 211 209 207 209 209 204 195 190 190 186 178 177 178 177 185 197 193 187 198 205 199 220 257 273 293 311 319 312 305 310 317 314 307 306 305 300 300 301 300 299 301 300 299 299 297 297 298
295 289 290 293 289 284 283 284 281 276 272 269 267 266 264 264 267 271 272 268 264 261 261 266 271 264 251 243 239 240 242 242 240 237 227 209 200 204 208 204 199 200 201 196 192 196 193 180 172 174 179 181 186 190 186 184 190 189 192 226 262 277 300 320 321 311 312 316 318 316 313 310 308 304 302 302 302 303 304 302 300 298 297 297 298
306 300 296 295 291 284 281 282 280 276 272 269 263 259 257 256 256 261 265 267 267 264 259 259 266 267 253 241 237 238 239 240 242 242 236 219 199 202 209 205 200 198 194 186 185 191 190 183 184 189 189 184 179 175 177 180 181 189 211 235 259 281 303 311 307 319 334 342 327 321 319 313 310 309 305 304 306 306 305 303 301 300 299 299 300
314 307 302 295 287 285 287 289 289 285 280 275 270 264 257 252 249 248 247 248 253 257 256 255 258 262 256 243 235 233 233 234 233 228 222 213 209 217 220 213 207 203 194 182 177 178 177 183 193 192 184 177 169 167 172 172 169 198 235 258 265 271 289 305 317 333 352 358 330 322 323 319 315 313 310 309 309 308 307 307 306 304 303 303 303
326 316 315 312 305 300 299 297 296 294 290 288 285 278 264 253 247 243 238 235 239 241 241 244 250 251 247 242 237 230 227 225 223 220 216 210 211 221 221 207 199 198 190 178 174 174 174 182 191 186 175 167 164 164 167 166 168 195 240 271 285 287 300 322 333 337 342 340 328 325 327 325 320 318 316 315 314 313 312 311 310 309 310 311 309
334 325 325 329 328 318 308 304 302 298 296 296 297 292 275 256 244 238 232 231 234 237 237 240 248 247 239 236 236 230 226 224 222 223 224 215 205 205 201 187 181 182 179 173 171 173 179 184 185 177 167 162 159 159 161 167 175 204 250 273 292 296 304 322 328 320 319 326 328 329 330 328 325 324 323 320 317 316 316 318 320 321 319 316 314
340 332 330 338 343 335 320 315 315 309 300 299 303 302 289 264 246 237 229 223 232 246 242 236 242 247 238 234 238 233 225 223 222 220 216 204 189 182 181 180 177 172 167 165 166 173 180 180 175 168 163 159 157 158 163 168 173 211 268 285 294 291 298 313 308 299 310 328 336 339 339 336 333 333 332 328 326 327 330 333 333 328 322 318 318
345 342 340 341 347 352 347 336 332 325 315 312 312 310 302 280 256 243 231 227 243 258 244 228 241 252 234 221 227 229 218 215 214 205 193 182 174 171 173 178 176 169 164 163 167 173 175 172 168 164 160 156 156 160 169 173 169 190 263 270 274 278 291 312 300 296 313 334 342 344 344 341 340 343 345 344 346 348 345 338 331 324 321 322 322
352 353 351 342 344 357 6 3 355 351 347 341 334 324 312 294 268 250 237 237 250 253 235 220 238 243 213 196 201 199 191 192 192 182 170 165 165 165 165 167 168 167 164 161 164 168 167 162 157 149 140 142 146 142 151 168 162 154 233 257 268 277 283 287 287 296 318 337 343 345 348 349 350 352 352 351 351 350 347 345 338 330 325 325 327
4 1 2 356 348 355 7 15 18 18 14 12 14 18 22 40 40 262 249 249 250 238 212 191 200 200 188 177 175 170 161 158 163 163 159 160 164 166 168 170 169 163 155 151 158 162 155 147 145 146 156 171 170 158 161 187 195 204 238 261 277 287 290 290 292 306 326 337 341 349 356 358 357 356 355 355 355 355 356 354 346 335 329 328 330
16 11 11 12 3 0 11 22 29 30 29 31 45 55 60 66 66 72 111 119 122 145 141 127 154 179 179 169 167 167 165 162 166 167 166 166 166 163 160 159 157 150 144 143 147 146 141 144 157 170 184 189 185 182 194 218 228 233 252 274 289 298 307 310 310 318 329 336 344 353 360 2 1 359 359 4 11 10 4 354 341 334 331 329 329
25 22 18 21 19 15 16 20 23 28 33 41 56 69 78 85 87 88 101 113 121 127 114 106 126 147 152 152 159 164 164 163 166 168 167 166 164 161 156 154 152 149 147 146 144 140 142 155 167 171 172 180 187 196 212 230 238 246 270 291 300 317 332 331 325 328 336 340 347 355 1 4 3 360 1 12 19 12 0 347 337 333 330 328 331
27 27 23 25 26 25 27 27 26 30 38 46 54 61 69 80 89 89 85 87 98 99 91 90 102 111 117 128 138 140 139 145 157 164 166 166 165 162 159 159 161 162 164 166 163 159 160 166 170 168 169 177 187 198 212 223 232 259 290 300 311 333 345 345 342 342 342 342 347 354 0 4 4 1 5 18 19 8 354 344 335 330 331 336 341
27 26 26 28 27 29 35 36 35 38 45 52 58 62 65 71 83 89 86 82 86 90 93 100 112 118 125 137 143 145 147 150 154 158 161 161 161 159 155 154 161 168 170 169 169 173 182 194 201 185 172 178 191 203 209 216 236 267 287 303 321 337 346 351 354 352 348 348 351 354 358 3 4 4 11 20 16 2 350 341 334 333 341 349 348
26 25 28 31 28 32 39 40 40 43 47 50 55 64 72 76 81 87 89 88 88 92 99 108 116 122 131 142 146 148 150 150 149 149 150 150 150 150 148 146 153 161 160 160 167 182 197 206 210 195 180 186 198 203 203 218 255 273 287 311 334 342 347 355 0 360 357 354 351 351 356 2 4 7 13 15 7 354 344 340 338 340 345 349 345
27 24 29 32 29 31 37 40 43 47 49 50 53 61 73 80 83 87 91 95 98 104 109 114 120 126 133 138 139 139 141 142 142 143 144 144 145 147 145 138 133 142 159 171 183 192 190 191 196 196 192 193 195 195 205 237 266 280 296 318 333 340 346 355 2 5 4 358 353 355 358 0 4 9 9 2 352 344 341 343 344 344 345 346 344
30 24 27 32 33 35 38 40 44 49 51 55 59 62 67 73 78 84 90 93 97 102 107 112 117 121 125 130 134 136 139 142 144 146 149 153 159 164 158 138 121 120 139 157 163 158 163 180 194 196 190 189 192 200 222 255 279 290 297 311 327 337 343 351 0 6 6 3 0 357 355 358 5 9 2 348 339 340 345 349 349 346 345 346 345
36 33 34 35 37 41 42 44 48 52 52 55 62 69 71 71 71 75 80 84 90 94 98 105 116 124 129 134 139 143 148 153 156 162 168 173 177 178 172 158 152 160 163 157 156 164 172 182 188 188 186 189 198 216 240 271 294 296 296 310 325 332 340 350 357 1 5 8 6 359 356 3 7 3 356 352 348 344 344 350 351 348 346 346 346